Location: Advent Pentecost Church
(32.7757°N, 96.7408°W)
Time: 05:31:57
(UTC+00:00)

N. Korean satellite - Pass Details

Date: 24 October 2021
Orbit: 447 x 495 km, 97.3° (Epoch: 30 November)

Event Time Altitude Azimuth Distance (km) Brightness Sun altitude
Rises 11:51:34 0° 5° (N) 2,584 10.2 -10.5°
Reaches altitude 10° 11:53:41 10° 1° (N) 1,693 9.2 -10.0°
Maximum altitude 11:57:15 53° 284° (WNW) 606 6.7 -9.3°
Drops below altitude 10° 12:00:44 10° 207° (SSW) 1,661 9.1 -8.6°
Sets 12:02:48 0° 202° (SSW) 2,528 10.1 -8.2°
